Home > Products > Valid Products > MTR

000
SAGM31 PGUM 210755
MTRGUM
METAR PGUM 210754Z 06015KT 10SM SCT021 SCT030 28/23 A2986 RMK AO2
SLP105 T02830233





000
SAGM31 PGUM 210755
MTRGUM
METAR PGUM 210754Z 06015KT 10SM SCT021 SCT030 28/23 A2986 RMK AO2
SLP105 T02830233




000
SAGM31 PGUM 210654
MTRGUM
METAR PGUM 210654Z 04013KT 10SM FEW026 29/23 A2985 RMK AO2 SLP100
T02890228





000
SAGM31 PGUM 210654
MTRGUM
METAR PGUM 210654Z 04013KT 10SM FEW026 29/23 A2985 RMK AO2 SLP100
T02890228




000
SAGM31 PGUM 210654
MTRGUM
METAR PGUM 210654Z 04013KT 10SM FEW026 29/23 A2985 RMK AO2 SLP100
T02890228




000
SAGM31 PGUM 210554
MTRGUM
METAR PGUM 210554Z 07014KT 10SM SCT024 SCT031 31/23 A2985 RMK AO2
SLP101 T03060228 10311 20289 58007




000
SAGM31 PGUM 210554
MTRGUM
METAR PGUM 210554Z 07014KT 10SM SCT024 SCT031 31/23 A2985 RMK AO2
SLP101 T03060228 10311 20289 58007





000
SAGM31 PGUM 210554
MTRGUM
METAR PGUM 210554Z 07014KT 10SM SCT024 SCT031 31/23 A2985 RMK AO2
SLP101 T03060228 10311 20289 58007




000
SAGM31 PGUM 210554
MTRGUM
METAR PGUM 210554Z 07014KT 10SM SCT024 SCT031 31/23 A2985 RMK AO2
SLP101 T03060228 10311 20289 58007





000
SAGM31 PGUM 210454
MTRGUM
METAR PGUM 210454Z 06016KT 10SM FEW026 31/23 A2986 RMK AO2 SLP102
T03060228





000
SAGM31 PGUM 210454
MTRGUM
METAR PGUM 210454Z 06016KT 10SM FEW026 31/23 A2986 RMK AO2 SLP102
T03060228




000
SAGM31 PGUM 210410
MTRGUM
SPECI PGUM 210410Z 07016G23KT 10SM SCT024 31/23 A2987 RMK AO2




000
SAGM31 PGUM 210410
MTRGUM
SPECI PGUM 210410Z 07016G23KT 10SM SCT024 31/23 A2987 RMK AO2





000
SAGM31 PGUM 210410
MTRGUM
SPECI PGUM 210410Z 07016G23KT 10SM SCT024 31/23 A2987 RMK AO2




000
SAGM31 PGUM 210402
MTRGUM
SPECI PGUM 210402Z 06015G24KT 10SM SCT024 BKN029 31/23 A2987 RMK AO2




000
SAGM31 PGUM 210402
MTRGUM
SPECI PGUM 210402Z 06015G24KT 10SM SCT024 BKN029 31/23 A2987 RMK AO2





000
SAGM31 PGUM 210354
MTRGUM
METAR PGUM 210354Z 08016G24KT 10SM SCT026 BKN035 31/23 A2987 RMK AO2
SLP108 T03060233




000
SAGM31 PGUM 210354
MTRGUM
METAR PGUM 210354Z 08016G24KT 10SM SCT026 BKN035 31/23 A2987 RMK AO2
SLP108 T03060233





000
SAGM31 PGUM 210351
MTRGUM
SPECI PGUM 210351Z 07015G23KT 10SM SCT024 BKN029 30/23 A2988 RMK AO2




000
SAGM31 PGUM 210351
MTRGUM
SPECI PGUM 210351Z 07015G23KT 10SM SCT024 BKN029 30/23 A2988 RMK AO2





000
SAGM31 PGUM 210255
MTRGUM
METAR PGUM 210254Z 06019G25KT 10SM FEW021 SCT027 BKN033 31/23 A2990
RMK AO2 SLP117 T03060228 58012




000
SAGM31 PGUM 210255
MTRGUM
METAR PGUM 210254Z 06019G25KT 10SM FEW021 SCT027 BKN033 31/23 A2990
RMK AO2 SLP117 T03060228 58012




000
SAGM31 PGUM 210255
MTRGUM
METAR PGUM 210254Z 06019G25KT 10SM FEW021 SCT027 BKN033 31/23 A2990
RMK AO2 SLP117 T03060228 58012





000
SAGM31 PGUM 210247
MTRGUM
SPECI PGUM 210246Z 06017KT 10SM SCT023 BKN030 BKN036 31/23 A2991 RMK
AO2





000
SAGM31 PGUM 210247
MTRGUM
SPECI PGUM 210246Z 06017KT 10SM SCT023 BKN030 BKN036 31/23 A2991 RMK
AO2




000
SAGM31 PGUM 210247
MTRGUM
SPECI PGUM 210246Z 06017KT 10SM SCT023 BKN030 BKN036 31/23 A2991 RMK
AO2




000
SAGM31 PGUM 210247
MTRGUM
SPECI PGUM 210246Z 06017KT 10SM SCT023 BKN030 BKN036 31/23 A2991 RMK
AO2





000
SAGM31 PGUM 210206
MTRGUM
SPECI PGUM 210205Z 06016G22KT 10SM SCT024 BKN029 BKN040 30/23 A2992
RMK AO2




000
SAGM31 PGUM 210206
MTRGUM
SPECI PGUM 210205Z 06016G22KT 10SM SCT024 BKN029 BKN040 30/23 A2992
RMK AO2




000
SAGM31 PGUM 210206
MTRGUM
SPECI PGUM 210205Z 06016G22KT 10SM SCT024 BKN029 BKN040 30/23 A2992
RMK AO2





000
SAGM31 PGUM 210155
MTRGUM
METAR PGUM 210154Z 08017KT 10SM SCT024 SCT029 BKN040 31/23 A2992 RMK
AO2 SLP124 T03060228




000
SAGM31 PGUM 210155
MTRGUM
METAR PGUM 210154Z 08017KT 10SM SCT024 SCT029 BKN040 31/23 A2992 RMK
AO2 SLP124 T03060228





000
SAGM31 PGUM 210155
MTRGUM
METAR PGUM 210154Z 08017KT 10SM SCT024 SCT029 BKN040 31/23 A2992 RMK
AO2 SLP124 T03060228




000
SAGM31 PGUM 210153
MTRGUM
SPECI PGUM 210152Z 07017KT 10SM SCT024 BKN029 BKN040 31/23 A2992 RMK
AO2




000
SAGM31 PGUM 210109
MTRGUM
SPECI PGUM 210108Z 07017KT 10SM FEW023 SCT027 BKN036 29/23 A2993 RMK
AO2




000
SAGM31 PGUM 210109
MTRGUM
SPECI PGUM 210108Z 07017KT 10SM FEW023 SCT027 BKN036 29/23 A2993 RMK
AO2





000
SAGM31 PGUM 210109
MTRGUM
SPECI PGUM 210108Z 07017KT 10SM FEW023 SCT027 BKN036 29/23 A2993 RMK
AO2




000
SAGM31 PGUM 210109
MTRGUM
SPECI PGUM 210108Z 07017KT 10SM FEW023 SCT027 BKN036 29/23 A2993 RMK
AO2





000
SAGM31 PGUM 210055
MTRGUM
METAR PGUM 210054Z 06016G23KT 10SM BKN023 BKN028 29/23 A2994 RMK AO2
SLP130 T02940233




000
SAGM31 PGUM 210055
MTRGUM
METAR PGUM 210054Z 06016G23KT 10SM BKN023 BKN028 29/23 A2994 RMK AO2
SLP130 T02940233




000
SAGM31 PGUM 210055
MTRGUM
METAR PGUM 210054Z 06016G23KT 10SM BKN023 BKN028 29/23 A2994 RMK AO2
SLP130 T02940233





000
SAGM31 PGUM 210051
MTRGUM
SPECI PGUM 210050Z 06014G20KT 10SM SCT023 29/23 A2994 RMK AO2





000
SAGM31 PGUM 210051
MTRGUM
SPECI PGUM 210050Z 06014G20KT 10SM SCT023 29/23 A2994 RMK AO2




000
SAGM31 PGUM 210051
MTRGUM
SPECI PGUM 210050Z 06014G20KT 10SM SCT023 29/23 A2994 RMK AO2





000
SAGM31 PGUM 210051
MTRGUM
SPECI PGUM 210050Z 06014G20KT 10SM SCT023 29/23 A2994 RMK AO2




000
SAGM31 PGUM 210022
MTRGUM
METAR PGUM 202354Z COR 06013KT 10SM FEW021 SCT048 29/24 A2994 RMK
AO2 SLP132 60020 T02940239 10294 20250 50006





000
SAGM31 PGUM 210022
MTRGUM
METAR PGUM 202354Z COR 06013KT 10SM FEW021 SCT048 29/24 A2994 RMK
AO2 SLP132 60020 T02940239 10294 20250 50006




000
SAGM31 PGUM 210022
MTRGUM
METAR PGUM 202354Z COR 06013KT 10SM FEW021 SCT048 29/24 A2994 RMK
AO2 SLP132 60020 T02940239 10294 20250 50006




000
SAGM31 PGUM 210022
MTRGUM
METAR PGUM 202354Z COR 06013KT 10SM FEW021 SCT048 29/24 A2994 RMK
AO2 SLP132 60020 T02940239 10294 20250 50006





000
SAGM31 PGUM 202355
MTRGUM
METAR PGUM 202354Z 06013KT 10SM FEW021 SCT048 29/24 A2994 RMK AO2
SLP132 60011 T02940239 10294 20250 50006





000
SAGM31 PGUM 202355
MTRGUM
METAR PGUM 202354Z 06013KT 10SM FEW021 SCT048 29/24 A2994 RMK AO2
SLP132 60011 T02940239 10294 20250 50006




000
SAGM31 PGUM 202355
MTRGUM
METAR PGUM 202354Z 06013KT 10SM FEW021 SCT048 29/24 A2994 RMK AO2
SLP132 60011 T02940239 10294 20250 50006




000
SAGM31 PGUM 202355
MTRGUM
METAR PGUM 202354Z 06013KT 10SM FEW021 SCT048 29/24 A2994 RMK AO2
SLP132 60011 T02940239 10294 20250 50006





000
SAGM31 PGUM 202332
MTRGUM
SPECI PGUM 202331Z 06016G21KT 10SM FEW020 SCT028 29/24 A2995 RMK AO2




000
SAGM31 PGUM 202332
MTRGUM
SPECI PGUM 202331Z 06016G21KT 10SM FEW020 SCT028 29/24 A2995 RMK AO2




000
SAGM31 PGUM 202255
MTRGUM
METAR PGUM 202254Z 06014KT 10SM BKN024 28/24 A2996 RMK AO2 SLP136
T02780239





000
SAGM31 PGUM 202255
MTRGUM
METAR PGUM 202254Z 06014KT 10SM BKN024 28/24 A2996 RMK AO2 SLP136
T02780239




000
SAGM31 PGUM 202255
MTRGUM
METAR PGUM 202254Z 06014KT 10SM BKN024 28/24 A2996 RMK AO2 SLP136
T02780239





000
SAGM31 PGUM 202255
MTRGUM
METAR PGUM 202254Z 06014KT 10SM BKN024 28/24 A2996 RMK AO2 SLP136
T02780239




000
SAGM31 PGUM 202155
MTRGUM
METAR PGUM 202154Z 06009KT 10SM CLR 27/24 A2994 RMK AO2 RAE2056
SLP131 P0000 T02720244




000
SAGM31 PGUM 202155
MTRGUM
METAR PGUM 202154Z 06009KT 10SM CLR 27/24 A2994 RMK AO2 RAE2056
SLP131 P0000 T02720244





000
SAGM31 PGUM 202109
MTRGUM
SPECI PGUM 202108Z 06011KT 10SM FEW018 SCT025 BKN032 27/25 A2993 RMK
AO2 RAE2056 P0000




000
SAGM31 PGUM 202109
MTRGUM
SPECI PGUM 202108Z 06011KT 10SM FEW018 SCT025 BKN032 27/25 A2993 RMK
AO2 RAE2056 P0000





000
SAGM31 PGUM 202055
MTRGUM
METAR PGUM 202054Z 06010KT 4SM -RA BR SCT021 BKN029 OVC048 26/24
A2993 RMK AO2 RAE1956B29 SLP126 P0008 60011 T02560244 53012




000
SAGM31 PGUM 202055
MTRGUM
METAR PGUM 202054Z 06010KT 4SM -RA BR SCT021 BKN029 OVC048 26/24
A2993 RMK AO2 RAE1956B29 SLP126 P0008 60011 T02560244 53012





000
SAGM31 PGUM 202055
MTRGUM
METAR PGUM 202054Z 06010KT 4SM -RA BR SCT021 BKN029 OVC048 26/24
A2993 RMK AO2 RAE1956B29 SLP126 P0008 60011 T02560244 53012





000
SAGM31 PGUM 202047
MTRGUM
SPECI PGUM 202046Z VRB03KT 2 1/2SM RA BR FEW016 BKN027 BKN039 25/24
A2992 RMK AO2 RAE1956B29 P0002





000
SAGM31 PGUM 202047
MTRGUM
SPECI PGUM 202046Z VRB03KT 2 1/2SM RA BR FEW016 BKN027 BKN039 25/24
A2992 RMK AO2 RAE1956B29 P0002




000
SAGM31 PGUM 201954
MTRGUM
METAR PGUM 201954Z 06009KT 10SM -RA SCT040 26/24 A2991 RMK AO2 RAB43
SLP120 P0002 T02560239





000
SAGM31 PGUM 201954
MTRGUM
METAR PGUM 201954Z 06009KT 10SM -RA SCT040 26/24 A2991 RMK AO2 RAB43
SLP120 P0002 T02560239




000
SAGM31 PGUM 201855
MTRGUM
METAR PGUM 201854Z 06009KT 10SM FEW019 SCT028 BKN060 26/24 A2990 RMK
AO2 RAB1757E19 SLP117 P0001 T02610244




000
SAGM31 PGUM 201855
MTRGUM
METAR PGUM 201854Z 06009KT 10SM FEW019 SCT028 BKN060 26/24 A2990 RMK
AO2 RAB1757E19 SLP117 P0001 T02610244





000
SAGM31 PGUM 201824
MTRGUM
SPECI PGUM 201823Z 06010KT 10SM FEW016 SCT027 BKN038 26/24 A2990 RMK
AO2 RAB1757E19 P0001





000
SAGM31 PGUM 201824
MTRGUM
SPECI PGUM 201823Z 06010KT 10SM FEW016 SCT027 BKN038 26/24 A2990 RMK
AO2 RAB1757E19 P0001




000
SAGM31 PGUM 201824
MTRGUM
SPECI PGUM 201823Z 06010KT 10SM FEW016 SCT027 BKN038 26/24 A2990 RMK
AO2 RAB1757E19 P0001




000
SAGM31 PGUM 201824
MTRGUM
SPECI PGUM 201823Z 06010KT 10SM FEW016 SCT027 BKN038 26/24 A2990 RMK
AO2 RAB1757E19 P0001





000
SAGM31 PGUM 201807
MTRGUM
SPECI PGUM 201806Z 07007KT 9SM -RA SCT016 BKN027 BKN043 26/24 A2989
RMK AO2 RAB1757 P0001





000
SAGM31 PGUM 201807
MTRGUM
SPECI PGUM 201806Z 07007KT 9SM -RA SCT016 BKN027 BKN043 26/24 A2989
RMK AO2 RAB1757 P0001




000
SAGM31 PGUM 201807
MTRGUM
SPECI PGUM 201806Z 07007KT 9SM -RA SCT016 BKN027 BKN043 26/24 A2989
RMK AO2 RAB1757 P0001





000
SAGM31 PGUM 201807
MTRGUM
SPECI PGUM 201806Z 07007KT 9SM -RA SCT016 BKN027 BKN043 26/24 A2989
RMK AO2 RAB1757 P0001




000
SAGM31 PGUM 201755
MTRGUM
METAR PGUM 201754Z 07008KT 10SM FEW018 SCT029 26/24 A2989 RMK AO2
SLP113 60001 T02610244 10267 20261 55006




000
SAGM31 PGUM 201755
MTRGUM
METAR PGUM 201754Z 07008KT 10SM FEW018 SCT029 26/24 A2989 RMK AO2
SLP113 60001 T02610244 10267 20261 55006





000
SAGM31 PGUM 201655
MTRGUM
METAR PGUM 201654Z 07009KT 10SM CLR 26/24 A2989 RMK AO2 RAE1558
SLP112 P0000 T02610244





000
SAGM31 PGUM 201655
MTRGUM
METAR PGUM 201654Z 07009KT 10SM CLR 26/24 A2989 RMK AO2 RAE1558
SLP112 P0000 T02610244




000
SAGM31 PGUM 201655
MTRGUM
METAR PGUM 201654Z 07009KT 10SM CLR 26/24 A2989 RMK AO2 RAE1558
SLP112 P0000 T02610244





000
SAGM31 PGUM 201554
MTRGUM
METAR PGUM 201554Z 07010KT 9SM -RA FEW026 SCT070 26/24 A2990 RMK AO2
RAB42 SLP116 P0000 T02610244




000
SAGM31 PGUM 201554
MTRGUM
METAR PGUM 201554Z 07010KT 9SM -RA FEW026 SCT070 26/24 A2990 RMK AO2
RAB42 SLP116 P0000 T02610244





000
SAGM31 PGUM 201554
MTRGUM
METAR PGUM 201554Z 07010KT 9SM -RA FEW026 SCT070 26/24 A2990 RMK AO2
RAB42 SLP116 P0000 T02610244





000
SAGM31 PGUM 201554
MTRGUM
METAR PGUM 201554Z 07010KT 9SM -RA FEW026 SCT070 26/24 A2990 RMK AO2
RAB42 SLP116 P0000 T02610244




000
SAGM31 PGUM 201508
MTRGUM
SPECI PGUM 201507Z 07010KT 10SM FEW019 SCT024 SCT055 27/24 A2990 RMK
AO2




000
SAGM31 PGUM 201508
MTRGUM
SPECI PGUM 201507Z 07010KT 10SM FEW019 SCT024 SCT055 27/24 A2990 RMK
AO2





000
SAGM31 PGUM 201455
MTRGUM
METAR PGUM 201454Z 06010KT 10SM SCT017 SCT023 BKN028 26/24 A2991 RMK
AO2 RAE1356 SLP119 P0000 60001 T02610239 56003




000
SAGM31 PGUM 201455
MTRGUM
METAR PGUM 201454Z 06010KT 10SM SCT017 SCT023 BKN028 26/24 A2991 RMK
AO2 RAE1356 SLP119 P0000 60001 T02610239 56003





000
SAGM31 PGUM 201354
MTRGUM
METAR PGUM 201354Z 06011KT 9SM -RA FEW021 BKN048 BKN070 26/24 A2992
RMK AO2 RAB21 SLP122 P0001 T02610244 403110244




000
SAGM31 PGUM 201354
MTRGUM
METAR PGUM 201354Z 06011KT 9SM -RA FEW021 BKN048 BKN070 26/24 A2992
RMK AO2 RAB21 SLP122 P0001 T02610244 403110244





000
SAGM31 PGUM 201255
MTRGUM
METAR PGUM 201254Z 07009KT 10SM FEW035 27/24 A2992 RMK AO2 SLP123
T02670239





000
SAGM31 PGUM 201255
MTRGUM
METAR PGUM 201254Z 07009KT 10SM FEW035 27/24 A2992 RMK AO2 SLP123
T02670239




000
SAGM31 PGUM 201255
MTRGUM
METAR PGUM 201254Z 07009KT 10SM FEW035 27/24 A2992 RMK AO2 SLP123
T02670239





000
SAGM31 PGUM 201255
MTRGUM
METAR PGUM 201254Z 07009KT 10SM FEW035 27/24 A2992 RMK AO2 SLP123
T02670239




000
SAGM31 PGUM 201155
MTRGUM
METAR PGUM 201154Z 08012G18KT 10SM FEW037 27/24 A2991 RMK AO2 SLP121
60000 T02670239 10294 20261 51010




000
SAGM31 PGUM 201155
MTRGUM
METAR PGUM 201154Z 08012G18KT 10SM FEW037 27/24 A2991 RMK AO2 SLP121
60000 T02670239 10294 20261 51010





000
SAGM31 PGUM 201155
MTRGUM
METAR PGUM 201154Z 08012G18KT 10SM FEW037 27/24 A2991 RMK AO2 SLP121
60000 T02670239 10294 20261 51010





000
SAGM31 PGUM 201155
MTRGUM
METAR PGUM 201154Z 08012G18KT 10SM FEW037 27/24 A2991 RMK AO2 SLP121
60000 T02670239 10294 20261 51010




000
SAGM31 PGUM 201055
MTRGUM
METAR PGUM 201054Z 05010KT 10SM FEW037 26/24 A2991 RMK AO2 RAB40E51
SLP119 P0000 T02610244





000
SAGM31 PGUM 201055
MTRGUM
METAR PGUM 201054Z 05010KT 10SM FEW037 26/24 A2991 RMK AO2 RAB40E51
SLP119 P0000 T02610244




000
SAGM31 PGUM 201055
MTRGUM
METAR PGUM 201054Z 05010KT 10SM FEW037 26/24 A2991 RMK AO2 RAB40E51
SLP119 P0000 T02610244





000
SAGM31 PGUM 201055
MTRGUM
METAR PGUM 201054Z 05010KT 10SM FEW037 26/24 A2991 RMK AO2 RAB40E51
SLP119 P0000 T02610244




000
SAGM31 PGUM 200955
MTRGUM
METAR PGUM 200954Z 07007KT 10SM FEW070 27/23 A2990 RMK AO2 SLP117
T02720233




000
SAGM31 PGUM 200854
MTRGUM
METAR PGUM 200854Z 07009KT 10SM FEW080 27/23 A2988 RMK AO2
RAB0757E08 SLP111 P0000 60000 T02720233 53013




000
SAGM31 PGUM 200854
MTRGUM
METAR PGUM 200854Z 07009KT 10SM FEW080 27/23 A2988 RMK AO2
RAB0757E08 SLP111 P0000 60000 T02720233 53013





000
SAGM31 PGUM 200854
MTRGUM
METAR PGUM 200854Z 07009KT 10SM FEW080 27/23 A2988 RMK AO2
RAB0757E08 SLP111 P0000 60000 T02720233 53013




000
SAGM31 PGUM 200854
MTRGUM
METAR PGUM 200854Z 07009KT 10SM FEW080 27/23 A2988 RMK AO2
RAB0757E08 SLP111 P0000 60000 T02720233 53013





000
SAGM31 PGUM 200755
MTRGUM
METAR PGUM 200754Z 07011KT 10SM FEW020 SCT070 28/23 A2987 RMK AO2
SLP106 T02830233





000
SAGM31 PGUM 200755
MTRGUM
METAR PGUM 200754Z 07011KT 10SM FEW020 SCT070 28/23 A2987 RMK AO2
SLP106 T02830233




000
SAGM31 PGUM 200755
MTRGUM
METAR PGUM 200754Z 07011KT 10SM FEW020 SCT070 28/23 A2987 RMK AO2
SLP106 T02830233





000
SAGM31 PGUM 200755
MTRGUM
METAR PGUM 200754Z 07011KT 10SM FEW020 SCT070 28/23 A2987 RMK AO2
SLP106 T02830233




000
SAGM31 PGUM 200655
MTRGUM
METAR PGUM 200654Z 07012KT 10SM FEW023 29/23 A2985 RMK AO2 RAB09E24
SLP099 P0000 T02890228





000
SAGM31 PGUM 200655
MTRGUM
METAR PGUM 200654Z 07012KT 10SM FEW023 29/23 A2985 RMK AO2 RAB09E24
SLP099 P0000 T02890228




000
SAGM31 PGUM 200655
MTRGUM
METAR PGUM 200654Z 07012KT 10SM FEW023 29/23 A2985 RMK AO2 RAB09E24
SLP099 P0000 T02890228




000
SAGM31 PGUM 200655
MTRGUM
METAR PGUM 200654Z 07012KT 10SM FEW023 29/23 A2985 RMK AO2 RAB09E24
SLP099 P0000 T02890228





000
SAGM31 PGUM 200554
MTRGUM
METAR PGUM 200554Z 09015G22KT 10SM SCT023 SCT031 29/23 A2985 RMK AO2
SLP098 T02940228 10311 20289 56012





000
SAGM31 PGUM 200554
MTRGUM
METAR PGUM 200554Z 09015G22KT 10SM SCT023 SCT031 29/23 A2985 RMK AO2
SLP098 T02940228 10311 20289 56012




000
SAGM31 PGUM 200455
MTRGUM
METAR PGUM 200454Z 08019KT 10SM SCT028 30/22 A2985 RMK AO2 SLP099
T03000217




000
SAGM31 PGUM 200455
MTRGUM
METAR PGUM 200454Z 08019KT 10SM SCT028 30/22 A2985 RMK AO2 SLP099
T03000217





000
SAGM31 PGUM 200355
MTRGUM
METAR PGUM 200354Z 08016G22KT 10SM SCT025 31/22 A2986 RMK AO2 SLP105
T03060222




000
SAGM31 PGUM 200355
MTRGUM
METAR PGUM 200354Z 08016G22KT 10SM SCT025 31/22 A2986 RMK AO2 SLP105
T03060222





000
SAGM31 PGUM 200355
MTRGUM
METAR PGUM 200354Z 08016G22KT 10SM SCT025 31/22 A2986 RMK AO2 SLP105
T03060222





000
SAGM31 PGUM 200355
MTRGUM
METAR PGUM 200354Z 08016G22KT 10SM SCT025 31/22 A2986 RMK AO2 SLP105
T03060222




000
SAGM31 PGUM 200254
MTRGUM
METAR PGUM 200254Z 08015G20KT 10SM FEW024 SCT029 BKN041 31/23 A2988
RMK AO2 SLP110 T03060228 58016




000
SAGM31 PGUM 200254
MTRGUM
METAR PGUM 200254Z 08015G20KT 10SM FEW024 SCT029 BKN041 31/23 A2988
RMK AO2 SLP110 T03060228 58016




000
SAGM31 PGUM 200254
MTRGUM
METAR PGUM 200254Z 08015G20KT 10SM FEW024 SCT029 BKN041 31/23 A2988
RMK AO2 SLP110 T03060228 58016





000
SAGM31 PGUM 200254
MTRGUM
METAR PGUM 200254Z 08015G20KT 10SM FEW024 SCT029 BKN041 31/23 A2988
RMK AO2 SLP110 T03060228 58016





000
SAGM31 PGUM 200155
MTRGUM
METAR PGUM 200154Z 08012KT 10SM SCT026 30/22 A2990 RMK AO2 SLP116
T03000222




000
SAGM31 PGUM 200155
MTRGUM
METAR PGUM 200154Z 08012KT 10SM SCT026 30/22 A2990 RMK AO2 SLP116
T03000222




000
SAGM31 PGUM 200155
MTRGUM
METAR PGUM 200154Z 08012KT 10SM SCT026 30/22 A2990 RMK AO2 SLP116
T03000222





000
SAGM31 PGUM 200055
MTRGUM
METAR PGUM 200054Z 07011KT 10SM SCT025 BKN037 30/22 A2992 RMK AO2
SLP122 T03000217




000
SAGM31 PGUM 200055
MTRGUM
METAR PGUM 200054Z 07011KT 10SM SCT025 BKN037 30/22 A2992 RMK AO2
SLP122 T03000217




000
SAGM31 PGUM 200055
MTRGUM
METAR PGUM 200054Z 07011KT 10SM SCT025 BKN037 30/22 A2992 RMK AO2
SLP122 T03000217





000
SAGM31 PGUM 200055
MTRGUM
METAR PGUM 200054Z 07011KT 10SM SCT025 BKN037 30/22 A2992 RMK AO2
SLP122 T03000217





000
SAGM31 PGUM 192355
MTRGUM
METAR PGUM 192354Z 09011KT 10SM SCT028 29/22 A2993 RMK AO2 SLP126
T02940217 10294 20244 50001




000
SAGM31 PGUM 192355
MTRGUM
METAR PGUM 192354Z 09011KT 10SM SCT028 29/22 A2993 RMK AO2 SLP126
T02940217 10294 20244 50001





000
SAGM31 PGUM 192355
MTRGUM
METAR PGUM 192354Z 09011KT 10SM SCT028 29/22 A2993 RMK AO2 SLP126
T02940217 10294 20244 50001




000
SAGM31 PGUM 192355
MTRGUM
METAR PGUM 192354Z 09011KT 10SM SCT028 29/22 A2993 RMK AO2 SLP126
T02940217 10294 20244 50001





000
SAGM31 PGUM 192255
MTRGUM
METAR PGUM 192254Z 08011KT 10SM FEW030 28/21 A2994 RMK AO2 SLP131
T02830211





000
SAGM31 PGUM 192255
MTRGUM
METAR PGUM 192254Z 08011KT 10SM FEW030 28/21 A2994 RMK AO2 SLP131
T02830211





000
SAGM31 PGUM 192255
MTRGUM
METAR PGUM 192254Z 08011KT 10SM FEW030 28/21 A2994 RMK AO2 SLP131
T02830211




000
SAGM31 PGUM 192154
MTRGUM
METAR PGUM 192154Z 08010KT 10SM CLR 28/21 A2993 RMK AO2 SLP128
T02780211





000
SAGM31 PGUM 192154
MTRGUM
METAR PGUM 192154Z 08010KT 10SM CLR 28/21 A2993 RMK AO2 SLP128
T02780211




000
SAGM31 PGUM 192055
MTRGUM
METAR PGUM 192054Z 07009KT 10SM CLR 26/21 A2992 RMK AO2 SLP125
T02610206 53008





000
SAGM31 PGUM 192055
MTRGUM
METAR PGUM 192054Z 07009KT 10SM CLR 26/21 A2992 RMK AO2 SLP125
T02610206 53008





000
SAGM31 PGUM 192055
MTRGUM
METAR PGUM 192054Z 07009KT 10SM CLR 26/21 A2992 RMK AO2 SLP125
T02610206 53008




000
SAGM31 PGUM 191955
MTRGUM
METAR PGUM 191954Z 06006KT 10SM FEW033 BKN065 26/22 A2991 RMK AO2
SLP120 T02560217





000
SAGM31 PGUM 191955
MTRGUM
METAR PGUM 191954Z 06006KT 10SM FEW033 BKN065 26/22 A2991 RMK AO2
SLP120 T02560217




000
SAGM31 PGUM 191854
MTRGUM
METAR PGUM 191854Z 07006KT 10SM CLR 26/22 A2990 RMK AO2 SLP118
T02560217





000
SAGM31 PGUM 191854
MTRGUM
METAR PGUM 191854Z 07006KT 10SM CLR 26/22 A2990 RMK AO2 SLP118
T02560217




000
SAGM31 PGUM 191854
MTRGUM
METAR PGUM 191854Z 07006KT 10SM CLR 26/22 A2990 RMK AO2 SLP118
T02560217





000
SAGM31 PGUM 191854
MTRGUM
METAR PGUM 191854Z 07006KT 10SM CLR 26/22 A2990 RMK AO2 SLP118
T02560217




000
SAGM31 PGUM 191755
MTRGUM
METAR PGUM 191754Z 07010KT 10SM SCT070 26/22 A2990 RMK AO2 SLP116
60000 T02610217 10267 20256 56010




000
SAGM31 PGUM 191755
MTRGUM
METAR PGUM 191754Z 07010KT 10SM SCT070 26/22 A2990 RMK AO2 SLP116
60000 T02610217 10267 20256 56010





000
SAGM31 PGUM 191655
MTRGUM
METAR PGUM 191654Z 06008KT 10SM FEW049 BKN070 26/22 A2990 RMK AO2
SLP117 T02610222





000
SAGM31 PGUM 191655
MTRGUM
METAR PGUM 191654Z 06008KT 10SM FEW049 BKN070 26/22 A2990 RMK AO2
SLP117 T02610222




000
SAGM31 PGUM 191554
MTRGUM
METAR PGUM 191554Z 07012KT 10SM CLR 26/22 A2992 RMK AO2 SLP124
T02610217





000
SAGM31 PGUM 191554
MTRGUM
METAR PGUM 191554Z 07012KT 10SM CLR 26/22 A2992 RMK AO2 SLP124
T02610217




000
SAGM31 PGUM 191454
MTRGUM
METAR PGUM 191454Z 07009KT 10SM CLR 26/22 A2993 RMK AO2 SLP127 60000
T02610222 58004




000
SAGM31 PGUM 191454
MTRGUM
METAR PGUM 191454Z 07009KT 10SM CLR 26/22 A2993 RMK AO2 SLP127 60000
T02610222 58004





000
SAGM31 PGUM 191354
MTRGUM
METAR PGUM 191354Z 07011KT 10SM SCT065 26/23 A2994 RMK AO2 RAB06E19
SLP131 P0000 T02610228 403060239




000
SAGM31 PGUM 191354
MTRGUM
METAR PGUM 191354Z 07011KT 10SM SCT065 26/23 A2994 RMK AO2 RAB06E19
SLP131 P0000 T02610228 403060239





000
SAGM31 PGUM 191254
MTRGUM
METAR PGUM 191254Z 07007KT 10SM FEW050 27/22 A2995 RMK AO2 SLP133
T02670222




000
SAGM31 PGUM 191154
MTRGUM
METAR PGUM 191154Z 07011KT 10SM FEW050 BKN070 27/22 A2994 RMK AO2
SLP131 70004 T02670222 10300 20267 51016




000
SAGM31 PGUM 191154
MTRGUM
METAR PGUM 191154Z 07011KT 10SM FEW050 BKN070 27/22 A2994 RMK AO2
SLP131 70004 T02670222 10300 20267 51016





000
SAGM31 PGUM 191154
MTRGUM
METAR PGUM 191154Z 07011KT 10SM FEW050 BKN070 27/22 A2994 RMK AO2
SLP131 70004 T02670222 10300 20267 51016





000
SAGM31 PGUM 191055
MTRGUM
METAR PGUM 191054Z 08010KT 10SM CLR 27/22 A2992 RMK AO2 SLP125
T02670222





000
SAGM31 PGUM 191055
MTRGUM
METAR PGUM 191054Z 08010KT 10SM CLR 27/22 A2992 RMK AO2 SLP125
T02670222





000
SAGM31 PGUM 191055
MTRGUM
METAR PGUM 191054Z 08010KT 10SM CLR 27/22 A2992 RMK AO2 SLP125
T02670222




000
SAGM31 PGUM 190955
MTRGUM
METAR PGUM 190954Z 08011KT 10SM FEW024 27/22 A2992 RMK AO2 SLP122
T02720217




000
SAGM31 PGUM 190955
MTRGUM
METAR PGUM 190954Z 08011KT 10SM FEW024 27/22 A2992 RMK AO2 SLP122
T02720217





000
SAGM31 PGUM 190854
MTRGUM
METAR PGUM 190854Z 08009KT 10SM FEW024 27/22 A2989 RMK AO2 SLP116
T02720222 53008




000
SAGM31 PGUM 190854
MTRGUM
METAR PGUM 190854Z 08009KT 10SM FEW024 27/22 A2989 RMK AO2 SLP116
T02720222 53008





000
SAGM31 PGUM 190854
MTRGUM
METAR PGUM 190854Z 08009KT 10SM FEW024 27/22 A2989 RMK AO2 SLP116
T02720222 53008




000
SAGM31 PGUM 190755
MTRGUM
METAR PGUM 190754Z 08013KT 10SM FEW024 28/22 A2988 RMK AO2 SLP111
T02830222




000
SAGM31 PGUM 190755
MTRGUM
METAR PGUM 190754Z 08013KT 10SM FEW024 28/22 A2988 RMK AO2 SLP111
T02830222





000
SAGM31 PGUM 190655
MTRGUM
METAR PGUM 190654Z 07015G20KT 10SM SCT022 29/23 A2987 RMK AO2 SLP107
T02890228




000
SAGM31 PGUM 190655
MTRGUM
METAR PGUM 190654Z 07015G20KT 10SM SCT022 29/23 A2987 RMK AO2 SLP107
T02890228





000
SAGM31 PGUM 190554
MTRGUM
METAR PGUM 190554Z 07016KT 10SM SCT024 30/23 A2987 RMK AO2 RAE01
SLP107 P0000 60001 T03000228 10306 20278 56015




000
SAGM31 PGUM 190554
MTRGUM
METAR PGUM 190554Z 07016KT 10SM SCT024 30/23 A2987 RMK AO2 RAE01
SLP107 P0000 60001 T03000228 10306 20278 56015





000
SAGM31 PGUM 190554
MTRGUM
METAR PGUM 190554Z 07016KT 10SM SCT024 30/23 A2987 RMK AO2 RAE01
SLP107 P0000 60001 T03000228 10306 20278 56015




000
SAGM31 PGUM 190554
MTRGUM
METAR PGUM 190554Z 07016KT 10SM SCT024 30/23 A2987 RMK AO2 RAE01
SLP107 P0000 60001 T03000228 10306 20278 56015





000
SAGM31 PGUM 190455
MTRGUM
METAR PGUM 190454Z 08019G23KT 10SM -RA FEW022 SCT027 BKN040 29/23
A2988 RMK AO2 RAB51 SLP108 P0000 T02940228





000
SAGM31 PGUM 190455
MTRGUM
METAR PGUM 190454Z 08019G23KT 10SM -RA FEW022 SCT027 BKN040 29/23
A2988 RMK AO2 RAB51 SLP108 P0000 T02940228




000
SAGM31 PGUM 190355
MTRGUM
METAR PGUM 190354Z 06016G21KT 10SM SCT022 30/23 A2989 RMK AO2 SLP113
T03000228




000
SAGM31 PGUM 190355
MTRGUM
METAR PGUM 190354Z 06016G21KT 10SM SCT022 30/23 A2989 RMK AO2 SLP113
T03000228





000
SAGM31 PGUM 190355
MTRGUM
METAR PGUM 190354Z 06016G21KT 10SM SCT022 30/23 A2989 RMK AO2 SLP113
T03000228





000
SAGM31 PGUM 190355
MTRGUM
METAR PGUM 190354Z 06016G21KT 10SM SCT022 30/23 A2989 RMK AO2 SLP113
T03000228




000
SAGM31 PGUM 190254
MTRGUM
METAR PGUM 190254Z 07016G23KT 10SM FEW024 29/23 A2992 RMK AO2 PK WND
09026/0215 RAB15E27 SLP122 P0001 60001 T02940228 58016




000
SAGM31 PGUM 190254
MTRGUM
METAR PGUM 190254Z 07016G23KT 10SM FEW024 29/23 A2992 RMK AO2 PK WND
09026/0215 RAB15E27 SLP122 P0001 60001 T02940228 58016





000
SAGM31 PGUM 190254
MTRGUM
METAR PGUM 190254Z 07016G23KT 10SM FEW024 29/23 A2992 RMK AO2 PK WND
09026/0215 RAB15E27 SLP122 P0001 60001 T02940228 58016




000
SAGM31 PGUM 190155
MTRGUM
METAR PGUM 190154Z 07016G23KT 10SM SCT020 SCT043 BKN050 29/23 A2993
RMK AO2 RAB31E49 SLP128 P0000 T02940233




000
SAGM31 PGUM 190155
MTRGUM
METAR PGUM 190154Z 07016G23KT 10SM SCT020 SCT043 BKN050 29/23 A2993
RMK AO2 RAB31E49 SLP128 P0000 T02940233





000
SAGM31 PGUM 190055
MTRGUM
METAR PGUM 190054Z 08017KT 10SM SCT024 SCT029 29/23 A2995 RMK AO2
SLP134 T02940228




000
SAGM31 PGUM 190055
MTRGUM
METAR PGUM 190054Z 08017KT 10SM SCT024 SCT029 29/23 A2995 RMK AO2
SLP134 T02940228





000
SAGM31 PGUM 190055
MTRGUM
METAR PGUM 190054Z 08017KT 10SM SCT024 SCT029 29/23 A2995 RMK AO2
SLP134 T02940228





000
SAGM31 PGUM 190055
MTRGUM
METAR PGUM 190054Z 08017KT 10SM SCT024 SCT029 29/23 A2995 RMK AO2
SLP134 T02940228




000
SAGM31 PGUM 182355
MTRGUM
METAR PGUM 182354Z 06014G20KT 10SM SCT025 BKN031 29/23 A2996 RMK AO2
SLP138 T02940228 10294 20239 51008




000
SAGM31 PGUM 182355
MTRGUM
METAR PGUM 182354Z 06014G20KT 10SM SCT025 BKN031 29/23 A2996 RMK AO2
SLP138 T02940228 10294 20239 51008





000
SAGM31 PGUM 182255
MTRGUM
METAR PGUM 182254Z 06013KT 10SM FEW027 28/22 A2996 RMK AO2 SLP136
T02780222





000
SAGM31 PGUM 182255
MTRGUM
METAR PGUM 182254Z 06013KT 10SM FEW027 28/22 A2996 RMK AO2 SLP136
T02780222




000
SAGM31 PGUM 182255
MTRGUM
METAR PGUM 182254Z 06013KT 10SM FEW027 28/22 A2996 RMK AO2 SLP136
T02780222





000
SAGM31 PGUM 182154
MTRGUM
METAR PGUM 182154Z 06009KT 10SM CLR 27/22 A2995 RMK AO2 SLP134
T02670222




000
SAGM31 PGUM 182055
MTRGUM
METAR PGUM 182054Z 07006KT 10SM CLR 25/22 A2994 RMK AO2 SLP131
T02500217 53014




000
SAGM31 PGUM 182055
MTRGUM
METAR PGUM 182054Z 07006KT 10SM CLR 25/22 A2994 RMK AO2 SLP131
T02500217 53014




000
SAGM31 PGUM 182055
MTRGUM
METAR PGUM 182054Z 07006KT 10SM CLR 25/22 A2994 RMK AO2 SLP131
T02500217 53014





000
SAGM31 PGUM 182055
MTRGUM
METAR PGUM 182054Z 07006KT 10SM CLR 25/22 A2994 RMK AO2 SLP131
T02500217 53014





000
SAGM31 PGUM 181954
MTRGUM
METAR PGUM 181954Z 04007KT 10SM CLR 24/22 A2992 RMK AO2 SLP125
T02390217




000
SAGM31 PGUM 181954
MTRGUM
METAR PGUM 181954Z 04007KT 10SM CLR 24/22 A2992 RMK AO2 SLP125
T02390217





000
SAGM31 PGUM 181855
MTRGUM
METAR PGUM 181854Z 06008KT 10SM CLR 25/22 A2991 RMK AO2 SLP119
T02500222





000
SAGM31 PGUM 181855
MTRGUM
METAR PGUM 181854Z 06008KT 10SM CLR 25/22 A2991 RMK AO2 SLP119
T02500222




000
SAGM31 PGUM 181855
MTRGUM
METAR PGUM 181854Z 06008KT 10SM CLR 25/22 A2991 RMK AO2 SLP119
T02500222




000
SAGM31 PGUM 181855
MTRGUM
METAR PGUM 181854Z 06008KT 10SM CLR 25/22 A2991 RMK AO2 SLP119
T02500222





000
SAGM31 PGUM 181754
MTRGUM
METAR PGUM 181754Z 06012KT 10SM FEW043 25/22 A2990 RMK AO2 SLP116
60001 T02500222 10256 20250 56007




000
SAGM31 PGUM 181754
MTRGUM
METAR PGUM 181754Z 06012KT 10SM FEW043 25/22 A2990 RMK AO2 SLP116
60001 T02500222 10256 20250 56007





000
SAGM31 PGUM 181654
MTRGUM
METAR PGUM 181654Z 06010KT 10SM CLR 25/23 A2990 RMK AO2 SLP116
T02500228





000
SAGM31 PGUM 181654
MTRGUM
METAR PGUM 181654Z 06010KT 10SM CLR 25/23 A2990 RMK AO2 SLP116
T02500228




000
SAGM31 PGUM 181654
MTRGUM
METAR PGUM 181654Z 06010KT 10SM CLR 25/23 A2990 RMK AO2 SLP116
T02500228





000
SAGM31 PGUM 181555
MTRGUM
METAR PGUM 181554Z 06010KT 10SM CLR 26/23 A2991 RMK AO2 SLP119
T02560233




000
SAGM31 PGUM 181555
MTRGUM
METAR PGUM 181554Z 06010KT 10SM CLR 26/23 A2991 RMK AO2 SLP119
T02560233





000
SAGM31 PGUM 181455
MTRGUM
METAR PGUM 181454Z 07010KT 10SM FEW044 26/23 A2992 RMK AO2 RAB10E21
SLP123 P0000 60001 T02560233 58009




000
SAGM31 PGUM 181455
MTRGUM
METAR PGUM 181454Z 07010KT 10SM FEW044 26/23 A2992 RMK AO2 RAB10E21
SLP123 P0000 60001 T02560233 58009





000
SAGM31 PGUM 181355
MTRGUM
METAR PGUM 181354Z 06011KT 10SM FEW021 26/24 A2993 RMK AO2 RAB15E42
SLP128 P0001 T02560239 403110244




000
SAGM31 PGUM 181355
MTRGUM
METAR PGUM 181354Z 06011KT 10SM FEW021 26/24 A2993 RMK AO2 RAB15E42
SLP128 P0001 T02560239 403110244





000
SAGM31 PGUM 181355
MTRGUM
METAR PGUM 181354Z 06011KT 10SM FEW021 26/24 A2993 RMK AO2 RAB15E42
SLP128 P0001 T02560239 403110244




000
SAGM31 PGUM 181344
MTRGUM
SPECI PGUM 181343Z 07010KT 10SM FEW019 SCT036 BKN047 26/24 A2993 RMK
AO2 RAB15E42 P0001




000
SAGM31 PGUM 181344
MTRGUM
SPECI PGUM 181343Z 07010KT 10SM FEW019 SCT036 BKN047 26/24 A2993 RMK
AO2 RAB15E42 P0001





000
SAGM31 PGUM 181318
MTRGUM
SPECI PGUM 181318Z 08007KT 10SM -RA BKN017 BKN028 BKN042 26/23 A2994
RMK AO2 RAB15 P0000





000
SAGM31 PGUM 181318
MTRGUM
SPECI PGUM 181318Z 08007KT 10SM -RA BKN017 BKN028 BKN042 26/23 A2994
RMK AO2 RAB15 P0000




000
SAGM31 PGUM 181318
MTRGUM
SPECI PGUM 181318Z 08007KT 10SM -RA BKN017 BKN028 BKN042 26/23 A2994
RMK AO2 RAB15 P0000





000
SAGM31 PGUM 181254
MTRGUM
METAR PGUM 181254Z 06007KT 10SM FEW019 SCT026 26/24 A2994 RMK AO2
RAB1155E12 SLP131 P0000 T02560239




000
SAGM31 PGUM 181254
MTRGUM
METAR PGUM 181254Z 06007KT 10SM FEW019 SCT026 26/24 A2994 RMK AO2
RAB1155E12 SLP131 P0000 T02560239





000
SAGM31 PGUM 181254
MTRGUM
METAR PGUM 181254Z 06007KT 10SM FEW019 SCT026 26/24 A2994 RMK AO2
RAB1155E12 SLP131 P0000 T02560239





000
SAGM31 PGUM 181254
MTRGUM
METAR PGUM 181254Z 06007KT 10SM FEW019 SCT026 26/24 A2994 RMK AO2
RAB1155E12 SLP131 P0000 T02560239




000
SAGM31 PGUM 181154
MTRGUM
METAR PGUM 181154Z 07013G20KT 9SM FEW018 SCT060 BKN090 26/24 A2995
RMK AO2 RAB12E25 SLP132 P0001 60005 70026 T02560239 10300 20250
53014




000
SAGM31 PGUM 181154
MTRGUM
METAR PGUM 181154Z 07013G20KT 9SM FEW018 SCT060 BKN090 26/24 A2995
RMK AO2 RAB12E25 SLP132 P0001 60005 70026 T02560239 10300 20250
53014





000
SAGM31 PGUM 181154
MTRGUM
METAR PGUM 181154Z 07013G20KT 9SM FEW018 SCT060 BKN090 26/24 A2995
RMK AO2 RAB12E25 SLP132 P0001 60005 70026 T02560239 10300 20250
53014




000
SAGM31 PGUM 181154
MTRGUM
METAR PGUM 181154Z 07013G20KT 9SM FEW018 SCT060 BKN090 26/24 A2995
RMK AO2 RAB12E25 SLP132 P0001 60005 70026 T02560239 10300 20250
53014





000
SAGM31 PGUM 181054
MTRGUM
METAR PGUM 181054Z 08008KT 10SM FEW017 SCT049 BKN080 26/24 A2993 RMK
AO2 RAB39E53 SLP126 P0002 T02560239




000
SAGM31 PGUM 181054
MTRGUM
METAR PGUM 181054Z 08008KT 10SM FEW017 SCT049 BKN080 26/24 A2993 RMK
AO2 RAB39E53 SLP126 P0002 T02560239





000
SAGM31 PGUM 180955
MTRGUM
METAR PGUM 180954Z 06010KT 10SM FEW020 SCT048 27/22 A2992 RMK AO2
SLP124 T02720222




000
SAGM31 PGUM 180955
MTRGUM
METAR PGUM 180954Z 06010KT 10SM FEW020 SCT048 27/22 A2992 RMK AO2
SLP124 T02720222





000
SAGM31 PGUM 180855
MTRGUM
METAR PGUM 180854Z 07010KT 10SM FEW020 27/23 A2991 RMK AO2 SLP118
T02720233 53015




000
SAGM31 PGUM 180855
MTRGUM
METAR PGUM 180854Z 07010KT 10SM FEW020 27/23 A2991 RMK AO2 SLP118
T02720233 53015




000
SAGM31 PGUM 180855
MTRGUM
METAR PGUM 180854Z 07010KT 10SM FEW020 27/23 A2991 RMK AO2 SLP118
T02720233 53015





000
SAGM31 PGUM 180855
MTRGUM
METAR PGUM 180854Z 07010KT 10SM FEW020 27/23 A2991 RMK AO2 SLP118
T02720233 53015





    US Dept of Commerce
    National Oceanic and Atmospheric Administration
    National Weather Service
    1325 East West Highway
    Silver Spring, MD 20910
    Page Author: NWS Internet Services Team
Disclaimer
Information Quality
Credits
Glossary
Privacy Policy
Freedom of Information Act (FOIA)
About Us
Career Opportunities